| time (UTC) | temp C | wind direction | speed KPH | gust KPH | rain 1hr cm | rain 24hr cm | rain mn cm | humidity % | barometer mb |
| 20260510150118 | 29 | 193 | 1.6 | 3.2 | 0.00 | 0.00 | 0.00 | 100 | 1018.2 |
| 20260510144547 | 28 | 241 | 3.2 | 11.3 | 0.00 | 0.03 | 0.00 | 100 | 1018.2 |
| 20260510143043 | 28 | 211 | 4.8 | 11.3 | 0.00 | 0.03 | 0.00 | 100 | 1018.1 |
| 20260510141542 | 28 | 171 | 1.6 | 6.4 | 0.00 | 0.03 | 0.00 | 100 | 1017.9 |
| 20260510140038 | 27 | 201 | 1.6 | 11.3 | 0.00 | 0.03 | 0.00 | 100 | 1017.9 |
| 20260510134536 | 27 | 196 | 3.2 | 9.7 | 0.00 | 0.03 | 0.00 | 100 | 1017.8 |
| 20260510133030 | 26 | 194 | 1.6 | 9.7 | 0.00 | 0.03 | 0.00 | 100 | 1017.7 |
| 20260510131526 | 25 | 161 | 4.8 | 12.9 | 0.00 | 0.03 | 0.00 | 100 | 1017.6 |
| 20260510130023 | 23 | 276 | 1.6 | 9.7 | 0.00 | 0.03 | 0.00 | 100 | 1017.7 |
| 20260510124526 | 22 | 194 | 1.6 | 4.8 | 0.00 | 0.03 | 0.00 | 100 | 1017.6 |
| 20260510123013 | 21 | 12 | 0.0 | 1.6 | 0.00 | 0.03 | 0.00 | 100 | 1017.4 |
| 20260510121510 | 21 | 59 | 0.0 | 1.6 | 0.00 | 0.03 | 0.00 | 100 | 1017.3 |
| 20260510120018 | 21 | 52 | 0.0 | 0.0 | 0.00 | 0.03 | 0.00 | 100 | 1017.1 |
| 20260510114514 | 20 | 51 | 0.0 | 1.6 | 0.00 | 0.03 | 0.00 | 100 | 1016.8 |
| 20260510113005 | 18 | 58 | 0.0 | 0.0 | 0.00 | 0.03 | 0.00 | 100 | 1016.5 |
| 20260510111504 | 18 | 125 | 0.0 | 0.0 | 0.00 | 0.03 | 0.00 | 100 | 1016.2 |
| 20260510110007 | 18 | 119 | 0.0 | 0.0 | 0.00 | 0.03 | 0.00 | 100 | 1016.3 |
| 20260510104503 | 18 | 55 | 0.0 | 0.0 | 0.00 | 0.03 | 0.00 | 100 | 1016.0 |
| 20260510103001 | 18 | 58 | 0.0 | 0.0 | 0.00 | 0.03 | 0.00 | 100 | 1015.6 |
| 20260510101601 | 19 | 61 | 0.0 | 0.0 | 0.00 | 0.03 | 0.00 | 100 | 1015.6 |
| 20260510094612 | 19 | 69 | 0.0 | 0.0 | 0.00 | 0.03 | 0.00 | 100 | 1015.4 |
| 20260510093119 | 20 | 72 | 0.0 | 0.0 | 0.00 | 0.03 | 0.00 | 100 | 1015.2 |
| 20260510091556 | 20 | 60 | 1.6 | 3.2 | 0.00 | 0.03 | 0.00 | 100 | 1014.9 |
| 20260510090054 | 20 | 57 | 0.0 | 0.0 | 0.00 | 0.03 | 0.00 | 100 | 1014.7 |
| 20260510084552 | 20 | 57 | 0.0 | 0.0 | 0.00 | 0.03 | 0.00 | 100 | 1014.5 |
| 20260510083104 | 20 | 57 | 0.0 | 1.6 | 0.00 | 0.03 | 0.00 | 100 | 1014.5 |
| 20260510081550 | 20 | 58 | 0.0 | 1.6 | 0.00 | 0.03 | 0.00 | 100 | 1014.5 |
| 20260510080053 | 21 | 58 | 0.0 | 1.6 | 0.00 | 0.03 | 0.00 | 100 | 1014.5 |
| 20260510074550 | 21 | 59 | 0.0 | 1.6 | 0.00 | 0.03 | 0.00 | 100 | 1014.5 |
| 20260510073054 | 21 | 61 | 0.0 | 1.6 | 0.00 | 0.03 | 0.00 | 100 | 1014.6 |
| 20260510071548 | 21 | 60 | 0.0 | 1.6 | 0.00 | 0.03 | 0.00 | 100 | 1014.4 |
| 20260510070047 | 21 | 61 | 0.0 | 3.2 | 0.00 | 0.03 | 0.00 | 100 | 1014.6 |
| 20260510064551 | 21 | 59 | 0.0 | 1.6 | 0.00 | 0.03 | 0.00 | 100 | 1014.7 |
| 20260510063044 | 21 | 60 | 0.0 | 0.0 | 0.00 | 0.03 | 0.00 | 100 | 1014.8 |
| 20260510061543 | 20 | 55 | 0.0 | 0.0 | 0.00 | 0.03 | 0.00 | 100 | 1014.9 |
| 20260510060044 | 20 | 54 | 0.0 | 0.0 | 0.00 | 0.03 | 0.00 | 100 | 1014.9 |
| 20260510054541 | 20 | 54 | 0.0 | 0.0 | 0.00 | 0.03 | 0.00 | 100 | 1015.3 |
| 20260510053036 | 20 | 54 | 0.0 | 0.0 | 0.00 | 0.03 | 0.00 | 100 | 1015.6 |
| 20260510051536 | 20 | 58 | 0.0 | 0.0 | 0.00 | 0.03 | 0.00 | 100 | 1015.9 |
| 20260510050038 | 20 | 67 | 0.0 | 0.0 | 0.00 | 0.03 | 0.00 | 100 | 1016.0 |
| 20260510044530 | 20 | 66 | 0.0 | 0.0 | 0.00 | 0.03 | 0.00 | 100 | 1016.3 |
| 20260510043029 | 20 | 65 | 0.0 | 0.0 | 0.00 | 0.03 | 0.00 | 100 | 1016.4 |
| 20260510041525 | 21 | 66 | 0.0 | 0.0 | 0.00 | 0.03 | 0.00 | 100 | 1016.5 |
| 20260510040022 | 21 | 64 | 0.0 | 0.0 | 0.00 | 0.03 | 0.03 | 100 | 1016.6 |
| 20260510034524 | 21 | 65 | 0.0 | 0.0 | 0.00 | 0.03 | 0.03 | 100 | 1016.6 |
| 20260510033021 | 21 | 65 | 0.0 | 0.0 | 0.00 | 0.03 | 0.03 | 100 | 1016.6 |
| 20260510031521 | 20 | 65 | 0.0 | 0.0 | 0.00 | 0.03 | 0.03 | 100 | 1016.6 |
| 20260510030023 | 21 | 56 | 0.0 | 0.0 | 0.00 | 0.03 | 0.03 | 100 | 1016.6 |
| 20260510024520 | 21 | 56 | 0.0 | 0.0 | 0.00 | 0.03 | 0.03 | 100 | 1016.6 |
| 20260510023019 | 21 | 56 | 0.0 | 0.0 | 0.00 | 0.03 | 0.03 | 100 | 1016.4 |
| 20260510021520 | 21 | 59 | 0.0 | 0.0 | 0.00 | 0.03 | 0.03 | 100 | 1016.0 |
| 20260510020018 | 21 | 36 | 0.0 | 0.0 | 0.00 | 0.03 | 0.03 | 100 | 1016.0 |
| 20260510014517 | 21 | 35 | 0.0 | 0.0 | 0.00 | 0.03 | 0.03 | 100 | 1015.8 |
| 20260510013016 | 21 | 34 | 0.0 | 0.0 | 0.00 | 0.03 | 0.03 | 100 | 1015.8 |
| 20260510011517 | 21 | 35 | 0.0 | 0.0 | 0.00 | 0.03 | 0.03 | 100 | 1015.5 |
| 20260510010016 | 22 | 40 | 0.0 | 0.0 | 0.00 | 0.03 | 0.03 | 100 | 1015.3 |
| 20260510004515 | 22 | 40 | 0.0 | 3.2 | 0.00 | 0.03 | 0.03 | 100 | 1015.1 |
| 20260510003023 | 22 | 41 | 1.6 | 4.8 | 0.00 | 0.03 | 0.03 | 100 | 1014.8 |
| 20260510001518 | 22 | 33 | 0.0 | 4.8 | 0.00 | 0.03 | 0.03 | 100 | 1015.0 |
| 20260510000014 | 22 | 28 | 1.6 | 4.8 | 0.00 | 0.03 | 0.03 | 100 | 1015.2 |
| 20260509234524 | 23 | 40 | 1.6 | 8.0 | 0.00 | 0.03 | 0.03 | 100 | 1015.0 |
| 20260509233012 | 23 | 25 | 1.6 | 6.4 | 0.00 | 0.03 | 0.03 | 100 | 1014.9 |
| 20260509231514 | 23 | 24 | 1.6 | 4.8 | 0.00 | 0.03 | 0.03 | 100 | 1014.9 |
| 20260509230012 | 23 | 51 | 1.6 | 14.5 | 0.00 | 0.03 | 0.03 | 100 | 1015.2 |
| 20260509224511 | 23 | 42 | 1.6 | 9.7 | 0.00 | 0.03 | 0.03 | 100 | 1015.3 |
| 20260509223011 | 24 | 350 | 1.6 | 4.8 | 0.00 | 0.03 | 0.03 | 100 | 1015.3 |
| 20260509221511 | 25 | 19 | 1.6 | 6.4 | 0.00 | 0.03 | 0.03 | 100 | 1014.9 |
| 20260509220021 | 25 | 39 | 1.6 | 6.4 | 0.00 | 0.03 | 0.03 | 100 | 1014.8 |
| 20260509214509 | 26 | 307 | 1.6 | 4.8 | 0.00 | 0.03 | 0.03 | 100 | 1014.6 |
| 20260509213009 | 27 | 26 | 0.0 | 4.8 | 0.00 | 0.03 | 0.03 | 100 | 1014.0 |
| 20260509211508 | 28 | 286 | 0.0 | 4.8 | 0.00 | 0.03 | 0.03 | 100 | 1014.0 |
| 20260509210007 | 28 | 315 | 0.0 | 4.8 | 0.00 | 0.03 | 0.03 | 100 | 1013.8 |
| 20260509204506 | 28 | 338 | 0.0 | 4.8 | 0.00 | 0.03 | 0.03 | 100 | 1013.8 |
| 20260509203009 | 28 | 143 | 1.6 | 4.8 | 0.00 | 0.03 | 0.03 | 100 | 1014.0 |
| 20260509201504 | 28 | 244 | 1.6 | 3.2 | 0.00 | 0.03 | 0.03 | 100 | 1013.9 |
| 20260509200005 | 28 | 217 | 1.6 | 8.0 | 0.00 | 0.03 | 0.03 | 100 | 1014.0 |
| 20260509194502 | 28 | 292 | 1.6 | 6.4 | 0.00 | 0.03 | 0.03 | 100 | 1014.2 |
| 20260509193001 | 28 | 241 | 3.2 | 4.8 | 0.00 | 0.03 | 0.03 | 100 | 1013.9 |
| 20260509191501 | 28 | 290 | 1.6 | 6.4 | 0.00 | 0.03 | 0.03 | 100 | 1014.0 |
| 20260509190100 | 29 | 265 | 3.2 | 6.4 | 0.00 | 0.03 | 0.03 | 100 | 1014.3 |
| 20260509184601 | 29 | 267 | 3.2 | 9.7 | 0.00 | 0.03 | 0.03 | 100 | 1014.1 |
| 20260509183103 | 29 | 176 | 3.2 | 6.4 | 0.00 | 0.03 | 0.03 | 100 | 1014.0 |
| 20260509181602 | 28 | 234 | 1.6 | 6.4 | 0.00 | 0.03 | 0.03 | 100 | 1014.2 |
| 20260509174558 | 29 | 280 | 3.2 | 6.4 | 0.00 | 0.03 | 0.03 | 100 | 1014.7 |
| 20260509173056 | 31 | 281 | 3.2 | 6.4 | 0.00 | 0.03 | 0.03 | 100 | 1014.6 |
| 20260509171552 | 31 | 266 | 3.2 | 9.7 | 0.00 | 0.03 | 0.03 | 100 | 1014.5 |
| 20260509170051 | 31 | 300 | 3.2 | 6.4 | 0.00 | 0.03 | 0.03 | 100 | 1014.8 |
| 20260509164544 | 30 | 179 | 1.6 | 6.4 | 0.00 | 0.03 | 0.03 | 100 | 1015.2 |
| 20260509163037 | 29 | 180 | 3.2 | 9.7 | 0.00 | 0.03 | 0.03 | 100 | 1015.2 |
| 20260509161535 | 28 | 213 | 1.6 | 6.4 | 0.00 | 0.03 | 0.03 | 100 | 1015.2 |
| 20260509160036 | 28 | 202 | 1.6 | 9.7 | 0.00 | 0.03 | 0.03 | 100 | 1015.1 |
| 20260509154528 | 27 | 163 | 3.2 | 9.7 | 0.00 | 0.03 | 0.03 | 100 | 1014.8 |
| 20260509153035 | 27 | 137 | 3.2 | 8.0 | 0.03 | 0.03 | 0.03 | 100 | 1014.9 |
| 20260509151522 | 26 | 178 | 1.6 | 11.3 | 0.03 | 0.03 | 0.03 | 100 | 1015.0 |